Starlink 11741

operational
NORAD ID: 64064 Int'l Des: 2025-107 Owner: SPXS Country: US Constellation: starlink
LEOCIRCULAR

Über Starlink 11741

Beschreibung wird geladen...

Live-Position

3D-Globus wird geladen...

Nächste Überflüge

Höhenverlauf

Altitude vs Time

uPlot chart will show altitude changes over time

Zweizeiliger Elementsatz

1 64064U 25107A 25340.93212833 .00166493 00000-0 12725-2 0 9998
2 64064 42.9991 297.8901 0001331 265.1377 94.9338 15.70889677 32707
Epoch: 6. Dez. 2025 • Age: 9 hours

Aktueller Status

Höhe 357.4 km
Geschwindigkeit 7.70 km/s
Subsatellitenpunkt 30.83°N, 142.75°E
Startdatum 21. Mai 2025
Alter 0.5 years
Typ internet

Technische Details

Klassifizierung Payload
Masse 960.00 kg
Trockenmasse 910.00 kg
Gesamtmasse 960.00 kg
Länge 0.30 m
Durchmesser 4.10 m
Spannweite 29.00 m
Form Box + pan
Hersteller SPXS
Bus-Typ Starlink V2MD
Phasenstatus In Orbit
Besitzer/Staat SPXS/US

Große Konstellationen

Loading constellations...